Location: Rounton
(54.4000°N, 1.3500°W)
Time: 07:35:20
(UTC+00:00)

Vanguard 1 Rocket - Pass Details

Date: 30 November 2021
Orbit: 651 x 4224 km, 34.3° (Epoch: 19 January)

Event Time Altitude Azimuth Distance (km) Brightness Sun altitude
Rises 01:17:09 0° 178° (S) 4,908 - -53.7°
Reaches altitude 10° 01:22:28 10° 154° (SSE) 4,601 - -53.2°
Exits shadow 01:27:23 14° 131° (SE) 4,859 11.0 -52.8°
Maximum altitude 01:28:17 14° 128° (SE) 4,953 11.1 -52.7°
Drops below altitude 10° 01:35:34 10° 103° (ESE) 6,043 11.7 -52.1°
Sets 01:45:07 0° 84° (E) 7,830 12.6 -51.1°
